sat.trackr.live / text

‹ back to catalog

ONEWEB-0673

NORAD 55832 · 2023-029AN

PAYLOAD ACTIVE UNKNOWN

§ Identity

Operator
Country
UK
Launch date
2023-03-09
Launch site
AFETR
Launch vehicle
Mass (kg)
RCS (m²)

Purposes: comms

External: N2YO · Heavens-Above · Gunter

§ Orbital elements

Epoch: 2026-09-19T21:17:52.357920Z

Period
109.11 min
Inclination
87.9107°
Eccentricity
0.0002017
Mean motion
13.19725713 rev/d
Perigee alt
1,184.2 km
Apogee alt
1,187.3 km
Semi-major
7,563.9 km
B*
1.4980e-4
RAAN
286.1022°
Arg perigee
90.0698°
Mean anomaly
270.0666°
Rev number
17,139

§ Raw data

ONEWEB-06731 55832U 23029AN  26262.88741155  .00000073  00000+0  14980-3 0  99902 55832  87.9107 286.1022 0002017  90.0698 270.0666 13.19725713171397

JSON: /api/v1/satellites/55832 · /tle

For live sub-satellite position, see the globe view (requires WebGL).

§ Visibility from observer

Set your observer location to see the next 7 days of passes ≥ 10°. The values pass through the URL so the page stays shareable.

No JS? Fill the form by hand. The geolocation button needs JavaScript.